TimeCST,TemperatureF,Dew PointF,Humidity,Sea Level PressureIn,VisibilityMPH,Wind Direction,Wind SpeedMPH,Gust SpeedMPH,PrecipitationIn,Events,Conditions,WindDirDegrees,DateUTC
12:21 AM,39.2,39.2,100,30.12,4.0,NE,17.3,-,0.00,Rain,Light Rain,50,2013-01-10 06:21:00
12:28 AM,39.2,39.2,100,30.12,4.0,ENE,12.7,-,0.00,Rain,Light Rain,60,2013-01-10 06:28:00
12:53 AM,39.0,39.0,100,30.11,4.0,ENE,15.0,-,0.02,Rain,Rain,60,2013-01-10 06:53:00
1:35 AM,39.2,39.2,100,30.09,5.0,ENE,10.4,-,0.04,Rain,Light Rain,60,2013-01-10 07:35:00
1:53 AM,39.0,39.0,100,30.09,5.0,ENE,11.5,-,0.04,Rain,Light Rain,60,2013-01-10 07:53:00
2:19 AM,39.2,39.2,100,30.07,2.5,ENE,10.4,-,0.02,Rain,Light Rain,60,2013-01-10 08:19:00
2:29 AM,39.2,39.2,100,30.07,3.0,NE,9.2,-,0.02,Rain,Light Rain,50,2013-01-10 08:29:00
2:53 AM,39.9,39.9,100,30.06,9.0,NE,10.4,-,0.03,Rain,Light Rain,50,2013-01-10 08:53:00
3:53 AM,39.9,39.9,100,30.03,7.0,NE,6.9,-,0.03,Rain,Light Rain,50,2013-01-10 09:53:00
4:53 AM,39.9,39.9,100,30.01,5.0,Calm,Calm,-,0.01,Rain,Rain,0,2013-01-10 10:53:00
5:08 AM,39.2,39.2,100,30.01,1.8,Calm,Calm,-,0.06,Rain,Heavy Rain,0,2013-01-10 11:08:00
5:15 AM,39.2,39.2,100,30.00,2.0,Calm,Calm,-,0.09,Rain,Heavy Rain,0,2013-01-10 11:15:00
5:25 AM,39.2,39.2,100,30.00,4.0,North,4.6,-,0.11,Rain,Heavy Rain,350,2013-01-10 11:25:00
5:40 AM,39.2,-9999,N/A,29.99,4.0,North,3.5,-,0.13,Rain,Rain,10,2013-01-10 11:40:00
5:53 AM,39.9,-9999,N/A,29.99,7.0,North,8.1,-,0.13,Rain,Light Rain,350,2013-01-10 11:53:00
6:12 AM,39.2,-9999,N/A,29.99,10.0,NNE,5.8,-,0.00,Rain,Light Rain,20,2013-01-10 12:12:00
6:46 AM,39.2,39.2,100,29.97,2.5,NNE,4.6,-,0.00,,Overcast,20,2013-01-10 12:46:00
6:53 AM,39.0,39.0,100,29.98,2.5,North,5.8,-,0.00,,Overcast,10,2013-01-10 12:53:00
7:02 AM,39.2,39.2,100,29.96,3.0,North,5.8,-,N/A,,Overcast,10,2013-01-10 13:02:00
7:53 AM,39.2,-9999,N/A,29.95,9.0,NE,5.8,-,N/A,,Overcast,50,2013-01-10 13:53:00
8:18 AM,39.2,-9999,N/A,29.95,1.8,NE,3.5,-,N/A,,Overcast,40,2013-01-10 14:18:00
8:31 AM,39.2,-9999,N/A,29.94,0.5,Calm,Calm,-,N/A,Fog,Fog,0,2013-01-10 14:31:00
8:53 AM,39.9,39.9,100,29.95,0.5,NNE,4.6,-,N/A,Fog,Fog,30,2013-01-10 14:53:00
9:53 AM,39.9,-9999,N/A,29.93,0.2,ENE,6.9,-,N/A,Fog,Fog,60,2013-01-10 15:53:00
10:53 AM,41.0,41.0,100,29.94,0.2,WNW,5.8,-,N/A,Fog,Fog,300,2013-01-10 16:53:00
11:17 AM,41.0,41.0,100,29.91,1.2,West,5.8,-,N/A,,Overcast,280,2013-01-10 17:17:00
11:34 AM,41.0,41.0,100,29.90,2.0,Calm,Calm,-,N/A,,Overcast,0,2013-01-10 17:34:00
11:53 AM,42.1,-9999,N/A,29.92,3.0,West,6.9,-,N/A,,Overcast,280,2013-01-10 17:53:00
12:23 PM,42.8,41.0,93,29.87,10.0,Calm,Calm,-,N/A,,Overcast,0,2013-01-10 18:23:00
12:35 PM,42.8,41.0,93,29.87,10.0,Calm,Calm,-,N/A,,Overcast,0,2013-01-10 18:35:00
12:53 PM,42.1,41.0,96,29.88,10.0,Calm,Calm,-,N/A,,Overcast,0,2013-01-10 18:53:00
1:53 PM,44.1,43.0,96,29.82,10.0,NW,3.5,-,N/A,,Overcast,310,2013-01-10 19:53:00
2:10 PM,44.6,42.8,93,29.81,10.0,WNW,4.6,-,N/A,,Overcast,290,2013-01-10 20:10:00
2:53 PM,45.0,43.0,93,29.83,10.0,West,5.8,-,N/A,,Overcast,260,2013-01-10 20:53:00
3:53 PM,45.0,44.1,97,29.83,5.0,West,10.4,-,N/A,,Overcast,280,2013-01-10 21:53:00
4:03 PM,44.6,44.6,100,29.83,9.0,WSW,10.4,-,N/A,,Overcast,250,2013-01-10 22:03:00
4:13 PM,46.4,44.6,93,29.82,10.0,WSW,4.6,-,N/A,,Overcast,250,2013-01-10 22:13:00
4:53 PM,46.0,44.1,93,29.82,10.0,SW,3.5,-,N/A,,Overcast,220,2013-01-10 22:53:00
5:05 PM,46.4,42.8,87,29.80,10.0,South,3.5,-,N/A,,Mostly Cloudy,190,2013-01-10 23:05:00
5:32 PM,44.6,42.8,93,29.81,10.0,SSW,5.8,-,N/A,,Mostly Cloudy,210,2013-01-10 23:32:00
5:53 PM,45.0,43.0,93,29.80,10.0,SSE,4.6,-,N/A,,Overcast,160,2013-01-10 23:53:00
6:29 PM,42.8,41.0,93,29.77,10.0,South,8.1,-,N/A,,Scattered Clouds,170,2013-01-11 00:29:00
6:49 PM,39.2,39.2,100,29.77,10.0,SSW,4.6,-,N/A,,Partly Cloudy,210,2013-01-11 00:49:00
6:53 PM,39.0,39.0,100,29.80,10.0,SW,9.2,-,N/A,,Partly Cloudy,220,2013-01-11 00:53:00
7:06 PM,42.8,42.8,100,29.77,10.0,SSW,6.9,-,N/A,,Mostly Cloudy,200,2013-01-11 01:06:00
7:15 PM,41.0,39.2,93,29.78,10.0,SW,5.8,-,N/A,,Mostly Cloudy,220,2013-01-11 01:15:00
7:31 PM,39.2,39.2,100,29.78,10.0,SW,5.8,-,N/A,,Scattered Clouds,220,2013-01-11 01:31:00
7:53 PM,39.0,37.9,96,29.79,10.0,SSW,5.8,-,N/A,,Clear,200,2013-01-11 01:53:00
8:53 PM,39.0,39.0,100,29.78,10.0,South,8.1,-,N/A,,Clear,180,2013-01-11 02:53:00
9:06 PM,41.0,39.2,93,29.76,10.0,South,9.2,-,N/A,,Scattered Clouds,180,2013-01-11 03:06:00
9:15 PM,42.8,41.0,93,29.77,8.0,South,9.2,-,N/A,,Mostly Cloudy,180,2013-01-11 03:15:00
9:41 PM,42.8,41.0,93,29.75,9.0,South,11.5,-,N/A,,Partly Cloudy,170,2013-01-11 03:41:00
9:53 PM,42.1,41.0,96,29.77,10.0,South,12.7,-,N/A,,Partly Cloudy,180,2013-01-11 03:53:00
10:53 PM,43.0,41.0,93,29.73,10.0,South,18.4,26.5,N/A,,Clear,170,2013-01-11 04:53:00
11:53 PM,43.0,41.0,93,29.72,10.0,South,20.7,28.8,N/A,,Clear,170,2013-01-11 05:53:00